Weather in Svetlyy Yar

Russia / Volgograd Oblast     48°28′32″N   44°46′48″E
temp.,
°C
wind,
m/s
gust,
m/s
humid.,
%
clouds,
%
prec.,
mm/h
press.,
hPa
HPBL,
m
25 february, thu
thu2500:00−14nw116773 0.0 104068
03:00−14sw226379 0.0 1039271
06:00−14ssw236777 0.0 1038246
09:00−12ssw456188 0.0 1037411
12:00−8ssw685199 0.0 1034557
15:00−7ssw6950100 0.0 1032616
18:00−6ssw61162100 0.1 1029675
21:00−6sw71376100 0.1 1026537
26 february, fri
fri2600:00−5wsw71488100 0.1 1023495
03:00−2w81589100 0.4 1020446
06:00−1w61393100 0.2 1019387
09:00+1w71394100 0.6 1018377
12:00+3w71294100 0.1 1017362
15:00+3w51195100 0.2 1018328
18:00+3w61296100 0.3 1017351
21:00+3w51296100 0.4 1016389
27 february, sat
sat2700:00+3w61493100 0.1 1014473
03:00+4w71591100 0.3 1013484
06:00+3w61393100 0.2 1011437
09:00+4w61290100 0.3 1011571
12:00+5w71182100 0.0 1009754
15:00+4w61282100 0.1 1010801
18:00+3w51086100 0.0 1009348
21:00+2w51090100 0.1 1010309
28 february, sun
sun2800:00+2w51090100 0.1 1010308
03:00+1w4118998 0.1 1010402
06:000w499230 0.0 1010258
09:00+2wnw578258 0.0 1011595
12:00+3wnw467597 0.0 1012720
15:00+1n469498 0.1 1012369
18:000nnw367997 0.0 1014169
21:00−2n477975 0.0 1017376
1 march, mon
mon100:00−3nnw457546 0.0 1019748
03:00−5nnw467173 0.0 1020710
06:00−5nnw576856 0.0 1022643
09:00−5nnw576328 0.0 1024725
12:00−2nnw565750 0.0 1025873
15:00−2nw565768 0.0 1025930
18:00−3nnw466410 0.0 1027685
21:00−4nnw46645 0.0 1029757